Overview Statistics Trail Chart Weather Telemetry Raw packets
 

This is the latest recevied weather packets stored in our database for station/object OM5AST-13. If no packets are shown the sender has not sent any weather packets the latest 10 day(s).

<< 15 16 17 18 19 20 21 >>
Time Temp. Humidity Pressure Rain* Wind** Luminosity Snow
1788135835 21.67° C 55% - 0 mm - 0 W/m² -
1788134635 21.67° C 55% - 0 mm - 0 W/m² -
1788133435 22.22° C 54% - 0 mm - 0 W/m² -
1788132235 22.78° C 53% - 0 mm - 0 W/m² -
1788131035 22.78° C 52% - 0 mm - 0 W/m² -
1788129835 22.78° C 51% - 0 mm - 0 W/m² -
1788128635 22.78° C 51% - 0 mm - 0 W/m² -
1788127435 23.33° C 49% - 0 mm - 0 W/m² -
1788126235 23.89° C 49% - 0 mm - 0 W/m² -
1788125035 23.89° C 47% - 0 mm - 0 W/m² -
1788123835 24.44° C 46% - 0 mm - 0 W/m² -
1788122635 25° C 45% - 0 mm - 0 W/m² -
1788121435 25° C 46% - 0 mm - 0 W/m² -
1788120235 25.56° C 44% - 0 mm - 0 W/m² -
1788119035 26.67° C 42% - 0 mm - 0 W/m² -
1788117835 26.67° C 40% - 0 mm - 0 W/m² -
1788116635 27.78° C 37% - 0 mm - 0 W/m² -
1788115435 28.89° C 35% - 0 mm - 0 W/m² -
1788114235 29.44° C 31% - 0 mm - 0 W/m² -
1788113035 30° C 30% - 0 mm - 0 W/m² -
1788111835 31.67° C 28% - 0 mm - 0 W/m² -
1788110635 34.44° C 26% - 0 mm - 0 W/m² -
1788109435 36.67° C 24% - 0 mm - 0 W/m² -
1788108235 37.22° C 24% - 0 mm - 0 W/m² -
1788107035 38.33° C 22% - 0 mm - 0 W/m² -

* Rain latest hour (hover to see other rain measurements)
** Current wind speed in m/s (hover to see current wind gust speed)